FW3708 Weather Reports


Display with metric or nautical units.
time (UTC)temp
F
wind
direction
speed
MPH
gust
MPH
rain 1hr
in
rain 24hr
in
rain mn
in
humidity
%
barometer
mb
20210304215347 75 297 1.0 6.0 0.00 0.00 0.00 43 1013.6
20210304214433 76 293 0.0 4.0 0.00 0.00 0.00 44 1013.8
20210304213939 75 297 0.0 4.0 0.00 0.00 0.00 44 1013.8
20210304213434 76 310 1.0 3.0 0.00 0.00 0.00 42 1013.8
20210304212956 76 269 1.0 6.0 0.00 0.00 0.00 44 1013.8
20210304212814 76 322 2.0 6.0 0.00 0.00 0.00 43 1013.9
20210304212121 76 327 2.0 6.0 0.00 0.00 0.00 42 1013.9
20210304211435 76 47 1.0 7.0 0.00 0.00 0.00 40 1013.9
20210304210936 76 286 3.0 7.0 0.00 0.00 0.00 43 1014.0
20210304210443 76 305 2.0 7.0 0.00 0.00 0.00 44 1014.2
20210304205945 76 76 0.0 6.0 0.00 0.00 0.00 45 1014.0
20210304205854 76 297 2.0 6.0 0.00 0.00 0.00 42 1014.1
20210304205217 75 326 1.0 6.0 0.00 0.00 0.00 45 1014.0
20210304204433 75 246 1.0 8.0 0.00 0.00 0.00 45 1013.9
20210304203933 76 300 4.0 8.0 0.00 0.00 0.00 41 1013.9
20210304203640 76 331 1.0 10.0 0.00 0.00 0.00 42 1013.8
20210304203259 76 278 5.0 10.0 0.00 0.00 0.00 41 1013.9
20210304203121 76 318 3.0 9.0 0.00 0.00 0.00 42 1014.0
20210304202419 76 337 2.0 9.0 0.00 0.00 0.00 44 1013.8
20210304201438 76 267 3.0 9.0 0.00 0.00 0.00 42 1013.9
20210304200944 76 292 3.0 9.0 0.00 0.00 0.00 45 1013.8
20210304200455 74 258 0.0 11.0 0.00 0.00 0.00 47 1013.9
20210304200204 76 276 5.0 11.0 0.00 0.00 0.00 44 1013.9
20210304195955 76 277 5.0 11.0 0.00 0.00 0.00 47 1013.9
20210304195243 76 269 5.0 8.0 0.00 0.00 0.00 46 1014.2
20210304194444 75 283 0.0 10.0 0.00 0.00 0.00 47 1013.9
20210304193940 75 297 2.0 10.0 0.00 0.00 0.00 49 1013.9
20210304193438 75 280 2.0 10.0 0.00 0.00 0.00 50 1014.0
20210304193138 75 284 1.0 10.0 0.00 0.00 0.00 51 1014.2
20210304192935 75 267 2.0 9.0 0.00 0.00 0.00 52 1014.3
20210304192150 75 292 4.0 7.0 0.00 0.00 0.00 50 1014.4
20210304191436 75 44 1.0 8.0 0.00 0.00 0.00 51 1014.4
20210304190937 75 320 3.0 8.0 0.00 0.00 0.00 52 1014.7
20210304190435 75 330 2.0 6.0 0.00 0.00 0.00 50 1014.4
20210304190057 73 246 2.0 8.0 0.00 0.00 0.00 56 1014.5
20210304185900 73 263 5.0 8.0 0.00 0.00 0.00 55 1014.9
20210304185226 73 251 4.0 8.0 0.00 0.00 0.00 55 1014.9
20210304184412 73 269 3.0 9.0 0.00 0.00 0.00 57 1014.8
20210304183910 73 301 4.0 9.0 0.00 0.00 0.00 54 1014.9
20210304183407 73 262 0.0 7.0 0.00 0.00 0.00 54 1014.8
20210304182919 73 11 1.0 7.0 0.00 0.00 0.00 56 1014.9
20210304182800 73 73 2.0 7.0 0.00 0.00 0.00 57 1015.2
20210304182123 72 84 2.0 7.0 0.00 0.00 0.00 56 1015.5
20210304181414 72 253 2.0 6.0 0.00 0.00 0.00 60 1015.3
20210304180911 72 330 1.0 6.0 0.00 0.00 0.00 57 1015.4
20210304180404 73 275 1.0 4.0 0.00 0.00 0.00 61 1015.7
20210304180104 72 232 2.0 4.0 0.00 0.00 0.00 58 1015.7
20210304175827 72 319 2.0 6.0 0.00 0.00 0.00 59 1016.1
20210304175028 71 301 1.0 7.0 0.00 0.00 0.00 59 1016.2
20210304174409 72 1 3.0 8.0 0.00 0.00 0.00 58 1016.3
20210304173914 71 16 1.0 8.0 0.00 0.00 0.00 58 1016.4
20210304173412 72 290 2.0 6.0 0.00 0.00 0.00 61 1016.3
20210304172908 71 313 3.0 7.0 0.00 0.00 0.00 62 1016.4
20210304172742 71 286 2.0 7.0 0.00 0.00 0.00 61 1016.7
20210304172108 71 66 2.0 7.0 0.00 0.00 0.00 61 1016.5
20210304171405 70 29 2.0 7.0 0.00 0.00 0.00 60 1016.6
20210304170932 71 254 2.0 8.0 0.00 0.00 0.00 62 1016.4
20210304170634 70 64 0.0 8.0 0.00 0.00 0.00 66 1016.6
20210304170331 70 351 3.0 6.0 0.00 0.00 0.00 64 1016.8
20210304170107 69 335 3.0 4.0 0.00 0.00 0.00 65 1016.7
20210304165350 69 326 3.0 7.0 0.00 0.00 0.00 65 1017.0
20210304164400 69 130 2.0 7.0 0.00 0.00 0.00 66 1017.0
20210304163908 69 61 4.0 7.0 0.00 0.00 0.00 65 1017.1
20210304163359 69 295 1.0 6.0 0.00 0.00 0.00 67 1017.1
20210304163243 68 250 2.0 7.0 0.00 0.00 0.00 68 1017.2
20210304162552 68 316 2.0 7.0 0.00 0.00 0.00 68 1017.2
20210304161337 69 321 4.0 7.0 0.00 0.00 0.00 67 1017.2
20210304160921 68 90 3.0 7.0 0.00 0.00 0.00 68 1017.2
20210304160418 67 40 1.0 4.0 0.00 0.00 0.00 70 1017.2
20210304160213 67 303 2.0 9.0 0.00 0.00 0.00 70 1017.0
20210304160046 67 307 2.0 9.0 0.00 0.00 0.00 72 1017.0
20210304155406 67 302 3.0 8.0 0.00 0.00 0.00 70 1017.1
20210304154345 67 72 2.0 8.0 0.00 0.00 0.00 70 1017.1
20210304153837 67 347 2.0 7.0 0.00 0.00 0.00 71 1017.2
20210304153436 66 168 2.0 7.0 0.00 0.00 0.00 74 1017.2
20210304153227 65 334 2.0 7.0 0.00 0.00 0.00 73 1017.1
20210304152952 65 319 1.0 7.0 0.00 0.00 0.00 75 1017.2
20210304152333 66 18 1.0 6.0 0.00 0.00 0.00 72 1017.4
20210304151335 65 30 1.0 4.0 0.00 0.00 0.00 74 1017.5
20210304150843 64 232 1.0 7.0 0.00 0.00 0.00 74 1017.1
20210304150435 64 356 4.0 7.0 0.00 0.00 0.00 75 1017.1
20210304150140 65 359 1.0 6.0 0.00 0.00 0.00 75 1017.3
20210304145945 64 264 4.0 6.0 0.00 0.00 0.00 75 1017.3
20210304145257 64 162 2.0 8.0 0.00 0.00 0.00 76 1017.4
20210304144331 63 295 5.0 8.0 0.00 0.00 0.00 77 1017.6
20210304143824 63 12 0.0 8.0 0.00 0.00 0.00 79 1017.5
20210304143323 63 280 2.0 9.0 0.00 0.00 0.00 78 1017.5
20210304142824 62 306 1.0 9.0 0.00 0.00 0.00 79 1017.6
20210304142641 62 21 3.0 9.0 0.00 0.00 0.00 79 1017.7
20210304141808 62 14 2.0 9.0 0.00 0.00 0.00 80 1017.7
20210304141304 62 335 5.0 7.0 0.00 0.00 0.00 79 1017.7
20210304140816 62 355 1.0 9.0 0.00 0.00 0.00 80 1017.3
20210304140305 60 249 2.0 9.0 0.00 0.00 0.00 82 1017.5
20210304135828 61 285 2.0 7.0 0.00 0.00 0.00 82 1017.6
20210304135640 61 224 2.0 7.0 0.00 0.00 0.00 82 1017.5
20210304134806 60 274 3.0 7.0 0.00 0.00 0.00 82 1017.7
20210304134323 59 332 3.0 8.0 0.00 0.00 0.00 85 1017.9
20210304134314 61 285 1.0 8.0 0.00 0.00 0.00 82 1017.7
20210304133934 60 310 0.0 8.0 0.00 0.00 0.00 84 1017.9
20210304132846 58 324 4.0 6.0 0.00 0.00 0.00 87 1017.8
20210304131842 58 304 3.0 6.0 0.00 0.00 0.00 88 1017.8
20210304131316 57 269 2.0 7.0 0.00 0.00 0.00 90 1017.7
20210304130805 57 349 2.0 9.0 0.00 0.00 0.00 90 1017.6
20210304130335 56 310 7.0 9.0 0.00 0.00 0.00 90 1017.6
20210304125811 56 306 2.0 7.0 0.00 0.00 0.00 90 1017.7
20210304125531 56 334 4.0 6.0 0.00 0.00 0.00 91 1017.3
20210304124814 56 280 2.0 6.0 0.00 0.00 0.00 91 1017.8
20210304124248 56 293 1.0 7.0 0.00 0.01 0.00 91 1017.9
20210304123741 56 308 3.0 8.0 0.00 0.02 0.00 91 1017.7
20210304123257 56 343 4.0 8.0 0.00 0.03 0.00 91 1017.5
20210304123016 56 329 2.0 9.0 0.00 0.08 0.00 92 1017.6
20210304121802 55 303 4.0 9.0 0.00 0.13 0.00 92 1017.6
20210304121238 55 296 0.0 6.0 0.00 0.18 0.00 93 1017.5
20210304120742 55 343 1.0 4.0 0.00 0.19 0.00 93 1017.5
20210304120318 55 7 3.0 4.0 0.00 0.22 0.00 93 1017.1
20210304120119 55 313 0.0 6.0 0.00 0.28 0.00 93 1017.1
20210304115720 55 334 0.0 6.0 0.00 0.30 0.00 93 1017.1
20210304114732 55 301 1.0 3.0 0.00 0.31 0.00 93 1017.0
20210304114241 55 317 0.0 3.0 0.00 0.32 0.00 94 1017.2
20210304113736 55 313 1.0 4.0 0.00 0.36 0.00 94 1016.9
20210304113305 55 351 2.0 4.0 0.00 0.43 0.00 94 1017.1
20210304113022 55 354 2.0 4.0 0.00 0.55 0.00 94 1017.1
20210304112756 55 309 2.0 4.0 0.00 0.65 0.00 95 1017.1
20210304111815 55 310 0.0 7.0 0.00 0.79 0.00 95 1016.9
20210304111239 55 274 1.0 7.0 0.00 0.79 0.00 95 1017.2
20210304110743 55 331 2.0 7.0 0.00 0.80 0.00 95 1017.2
20210304110417 55 321 0.0 7.0 0.00 0.80 0.00 95 1016.6
20210304110159 55 323 4.0 4.0 0.00 0.83 0.00 95 1016.8
20210304105909 55 307 2.0 4.0 0.00 0.85 0.00 95 1016.8
20210304104835 55 302 1.0 4.0 0.00 0.85 0.00 95 1016.7
20210304104232 55 307 1.0 3.0 0.00 0.85 0.00 95 1016.7
20210304103736 55 312 1.0 3.0 0.00 0.85 0.00 94 1016.5
20210304103237 55 299 1.0 3.0 0.00 0.85 0.00 94 1016.6
20210304102834 55 304 3.0 6.0 0.00 0.85 0.00 95 1016.8
20210304102533 55 293 1.0 6.0 0.00 0.85 0.00 95 1016.7
20210304101719 55 261 2.0 3.0 0.00 0.85 0.00 95 1016.7
20210304101210 55 300 1.0 6.0 0.00 0.85 0.00 95 1016.7
20210304100711 55 280 0.0 6.0 0.00 0.85 0.00 95 1016.5
20210304100213 55 322 3.0 6.0 0.00 0.85 0.00 94 1016.7
20210304095856 55 317 0.0 6.0 0.00 0.85 0.00 94 1016.2
20210304095458 55 301 0.0 4.0 0.00 0.85 0.00 94 1016.4
20210304094730 55 315 1.0 4.0 0.00 0.85 0.00 93 1016.3
20210304094207 56 304 0.0 3.0 0.00 0.85 0.00 93 1016.3
20210304093704 56 312 0.0 4.0 0.00 0.85 0.00 93 1016.1
20210304093214 56 297 1.0 4.0 0.00 0.85 0.00 92 1016.2
20210304093033 56 344 2.0 6.0 0.00 0.85 0.00 92 1016.4
20210304092809 56 304 1.0 6.0 0.00 0.85 0.00 92 1016.0
20210304091843 56 305 1.0 6.0 0.00 0.85 0.00 91 1016.3
20210304091207 56 294 0.0 3.0 0.00 0.85 0.00 92 1016.2
20210304090732 56 321 0.0 3.0 0.00 0.85 0.00 92 1016.2
20210304090209 56 323 2.0 4.0 0.00 0.85 0.00 92 1016.1
20210304085844 56 340 1.0 6.0 0.00 0.85 0.00 92 1016.4
20210304085617 56 308 0.0 6.0 0.00 0.85 0.00 92 1016.3
20210304084726 56 301 1.0 4.0 0.00 0.85 0.00 92 1016.3
20210304084216 56 260 1.0 3.0 0.00 0.85 0.00 92 1016.2
20210304083710 56 282 0.0 6.0 0.00 0.85 0.00 91 1016.1
20210304083221 56 1 2.0 6.0 0.00 0.85 0.00 91 1016.1
20210304082839 56 317 2.0 3.0 0.00 0.85 0.00 92 1016.0
20210304082347 56 324 2.0 4.0 0.00 0.85 0.00 92 1016.2
20210304081649 56 344 0.0 4.0 0.00 0.85 0.00 92 1016.3
20210304081133 56 22 0.0 2.0 0.00 0.85 0.00 93 1016.1
20210304080634 56 308 0.0 2.0 0.00 0.85 0.00 93 1016.3
20210304080132 56 342 0.0 3.0 0.00 0.85 0.00 93 1016.3
20210304075718 56 312 0.0 3.0 0.00 0.85 0.00 93 1016.3
20210304075259 56 322 2.0 3.0 0.00 0.85 0.00 93 1016.4
20210304074632 56 335 1.0 3.0 0.00 0.85 0.00 93 1016.5
20210304074135 56 5 1.0 2.0 0.00 0.85 0.00 93 1016.2
20210304073634 56 5 1.0 3.0 0.00 0.85 0.00 93 1016.2
20210304073148 56 31 0.0 4.0 0.00 0.85 0.00 93 1016.2
20210304072653 56 0 0.0 4.0 0.00 0.85 0.00 93 1016.2
20210304072224 56 13 0.0 3.0 0.00 0.85 0.00 93 1016.3
20210304071633 57 39 2.0 4.0 0.00 0.85 0.00 93 1016.1
20210304071133 56 19 0.0 4.0 0.00 0.85 0.00 93 1016.2
20210304070634 56 46 1.0 4.0 0.00 0.85 0.00 93 1016.2
20210304070133 56 49 0.0 4.0 0.00 0.85 0.00 93 1016.3
20210304065814 56 72 2.0 3.0 0.00 0.85 0.00 93 1016.4
20210304065428 57 50 1.0 3.0 0.00 0.85 0.00 92 1016.4
20210304064645 57 9 0.0 2.0 0.00 0.85 0.00 92 1016.3
20210304064133 57 22 0.0 3.0 0.00 0.85 0.00 92 1016.3
20210304063633 57 52 1.0 3.0 0.00 0.85 0.00 92 1016.5
20210304063212 57 353 1.0 2.0 0.00 0.85 0.00 92 1016.8
20210304063059 57 300 0.0 1.0 0.00 0.85 0.00 92 1016.6
20210304062901 57 309 0.0 4.0 0.00 0.85 0.00 92 1016.5
20210304061711 57 314 0.0 4.0 0.00 0.85 0.00 92 1016.7
20210304061155 57 21 1.0 2.0 0.00 0.85 0.00 92 1016.7
20210304060639 57 47 0.0 2.0 0.00 0.85 0.00 92 1016.6
20210304060147 57 14 0.0 3.0 0.00 0.85 0.00 92 1016.5
20210304055809 57 69 2.0 3.0 0.00 0.85 0.00 92 1016.7
20210304055343 57 70 1.0 3.0 0.00 0.85 0.00 91 1016.4
20210304054618 57 357 1.0 2.0 0.00 0.85 0.00 91 1016.6
20210304054111 57 335 0.0 2.0 0.00 0.85 0.00 92 1016.7
20210304053620 57 12 0.0 6.0 0.00 0.85 0.00 92 1016.7
20210304053119 57 0 0.0 6.0 0.00 0.85 0.00 92 1016.5
20210304052802 57 18 1.0 3.0 0.00 0.85 0.00 93 1016.6
20210304052316 57 61 1.0 3.0 0.00 0.85 0.00 93 1016.6
20210304051614 57 33 1.0 3.0 0.00 0.85 0.00 93 1016.3
20210304051110 57 306 0.0 2.0 0.00 0.85 0.00 93 1016.4
20210304050614 57 318 0.0 2.0 0.00 0.85 0.00 93 1016.6
20210304050125 57 19 0.0 2.0 0.00 0.85 0.00 94 1016.6
20210304045726 57 344 0.0 3.0 0.00 0.85 0.85 95 1016.9
20210304045256 57 345 0.0 3.0 0.00 0.85 0.85 95 1016.8
20210304044613 57 52 1.0 2.0 0.00 0.85 0.85 95 1017.1
20210304044123 57 40 0.0 2.0 0.00 0.85 0.85 95 1016.9
20210304043607 57 97 0.0 2.0 0.00 0.85 0.85 95 1017.0
20210304043112 57 34 0.0 4.0 0.00 0.85 0.85 95 1017.1
20210304042840 57 18 0.0 4.0 0.00 0.85 0.85 95 1017.0
20210304042228 58 44 0.0 3.0 0.00 0.85 0.85 94 1016.8
20210304041608 58 0 1.0 3.0 0.00 0.85 0.85 94 1016.8
20210304041121 58 25 1.0 3.0 0.00 0.85 0.85 93 1016.6
20210304040619 58 34 2.0 3.0 0.00 0.85 0.85 93 1016.5
20210304040124 58 58 1.0 3.0 0.00 0.85 0.85 93 1016.4
20210304035950 58 332 0.0 3.0 0.00 0.85 0.85 92 1016.5
20210304035821 58 47 1.0 3.0 0.00 0.85 0.85 92 1016.7
20210304034610 58 35 1.0 3.0 0.00 0.85 0.85 91 1016.4
20210304034105 59 35 1.0 3.0 0.00 0.85 0.85 90 1016.6
20210304033601 59 29 1.0 3.0 0.00 0.85 0.85 90 1016.5
20210304033326 59 14 2.0 3.0 0.00 0.85 0.85 90 1016.6
20210304033109 59 342 1.0 3.0 0.00 0.85 0.85 90 1016.6
20210304032813 59 10 0.0 2.0 0.00 0.85 0.85 90 1016.7
20210304031534 59 336 0.0 6.0 0.00 0.85 0.85 89 1016.7
20210304031034 59 35 1.0 6.0 0.00 0.85 0.85 89 1016.7
20210304030538 59 31 1.0 4.0 0.00 0.85 0.85 90 1016.6
20210304030234 59 356 0.0 2.0 0.00 0.85 0.85 91 1016.6
20210304025906 59 7 0.0 2.0 0.00 0.85 0.85 91 1016.7
20210304025329 59 44 0.0 2.0 0.00 0.85 0.85 91 1016.6
20210304024940 59 32 0.0 6.0 0.00 0.85 0.85 91 1016.7
20210304024051 59 1 1.0 6.0 0.00 0.85 0.85 91 1016.7
20210304023546 59 18 0.0 2.0 0.00 0.85 0.85 91 1016.7
20210304023143 59 301 1.0 2.0 0.00 0.85 0.85 91 1016.6
20210304022814 59 22 0.0 2.0 0.00 0.85 0.85 91 1016.5
20210304022335 59 334 1.0 3.0 0.00 0.85 0.85 91 1016.7
20210304021534 58 72 2.0 3.0 0.00 0.85 0.85 90 1016.5
20210304021037 58 26 1.0 3.0 0.00 0.85 0.85 91 1016.5
20210304020532 58 331 2.0 3.0 0.00 0.85 0.85 91 1016.4
20210304020031 58 69 1.0 2.0 0.00 0.85 0.85 91 1016.6
20210304015842 58 0 0.0 6.0 0.00 0.85 0.85 91 1016.3
20210304014544 58 15 0.0 4.0 0.00 0.85 0.85 92 1016.4
20210304014035 58 16 0.0 2.0 0.00 0.85 0.85 92 1016.2
20210304013545 58 12 0.0 2.0 0.00 0.85 0.85 92 1016.2
20210304013054 58 48 0.0 2.0 0.00 0.85 0.85 92 1016.1
20210304012823 58 34 1.0 2.0 0.00 0.85 0.85 92 1016.1
20210304012311 58 318 0.0 3.0 0.00 0.85 0.85 91 1016.0
20210304011549 58 333 1.0 3.0 0.00 0.85 0.85 91 1015.9
20210304011115 58 11 0.0 2.0 0.00 0.85 0.85 91 1015.7
20210304010536 58 5 0.0 4.0 0.00 0.85 0.85 90 1015.6
20210304010106 58 8 0.0 4.0 0.00 0.85 0.85 90 1015.4
20210304005845 58 46 1.0 4.0 0.00 0.85 0.85 90 1015.2
20210304005230 59 31 1.0 4.0 0.00 0.85 0.85 89 1015.4
20210304004526 59 352 1.0 4.0 0.00 0.85 0.85 89 1015.2
20210304004031 59 33 2.0 4.0 0.00 0.85 0.85 89 1015.2
20210304003534 59 356 1.0 6.0 0.00 0.85 0.85 89 1014.9
20210304003027 59 18 2.0 6.0 0.00 0.85 0.85 88 1015.0
20210304002734 60 329 2.0 6.0 0.00 0.85 0.85 87 1015.1
20210304001530 60 17 1.0 6.0 0.00 0.85 0.85 87 1014.9
20210304001047 60 350 1.0 6.0 0.00 0.85 0.85 87 1014.9
20210304000628 61 31 1.0 3.0 0.00 0.85 0.85 86 1014.9
20210303235951 62 44 2.0 4.0 0.00 0.85 0.85 84 1014.6
20210303234541 63 320 2.0 4.0 0.00 0.85 0.85 83 1014.3
20210303234044 64 86 0.0 4.0 0.00 0.85 0.85 82 1014.4
20210303233545 65 13 1.0 3.0 0.00 0.85 0.85 79 1014.1
20210303233153 65 28 0.0 7.0 0.00 0.85 0.85 76 1014.0
20210303232938 65 349 2.0 7.0 0.00 0.85 0.85 75 1013.6
20210303232357 65 67 2.0 3.0 0.00 0.85 0.85 74 1013.6
20210303231522 66 346 1.0 6.0 0.00 0.85 0.85 74 1013.6
20210303231025 66 309 2.0 6.0 0.00 0.85 0.85 73 1013.5
20210303230746 66 319 2.0 4.0 0.00 0.85 0.85 73 1013.4
20210303230610 67 347 2.0 4.0 0.00 0.85 0.85 72 1013.0
20210303230528 66 319 2.0 4.0 0.00 0.85 0.85 73 1013.4
20210303225814 67 21 1.0 9.0 0.00 0.85 0.85 71 1013.0
20210303225151 67 9 3.0 9.0 0.00 0.85 0.85 71 1013.4
20210303224500 68 286 2.0 6.0 0.00 0.85 0.85 70 1013.5
20210303223952 69 357 2.0 6.0 0.00 0.85 0.85 70 1013.4
20210303223523 69 313 1.0 6.0 0.00 0.85 0.85 70 1013.4
20210303223141 69 345 1.0 6.0 0.00 0.85 0.85 69 1013.5
20210303222925 70 307 3.0 6.0 0.00 0.85 0.85 67 1013.3
20210303222329 71 49 1.0 8.0 0.00 0.85 0.85 64 1013.2
20210303221455 71 302 2.0 8.0 0.00 0.87 0.85 61 1013.0
20210303220937 72 322 2.0 7.0 0.00 0.89 0.85 60 1012.9
20210303220438 72 251 4.0 7.0 0.00 0.90 0.85 59 1012.6
20210303220029 73 327 2.0 7.0 0.00 0.90 0.85 58 1013.1
20210303215858 72 279 1.0 8.0 0.00 0.92 0.85 57 1013.0